South Hill, VA

6:45 AM EST on November 14, 2019 (GMT -0500)
Mecklenburg-Brunswick Regional

Weather History for KAVC - August, 2019

Change the Weather History Date:

Saturday, August 10, 2019

  Actual Average (KEMV) Record (KEMV)
Temperature  
Mean Temperature 76 °F -  
Max Temperature 86 °F 88 °F 100 °F (2007)
Min Temperature 66 °F 65 °F 55 °F (2017)
Cooling Degree Days 11    
Growing Degree Days 26 (Base 50)    
Moisture  
Dew Point 66 °F    
Average Humidity 73    
Maximum Humidity 100    
Minimum Humidity 49    
Precipitation  
Precipitation 0.21 in - - ()
Sea Level Pressure  
Sea Level Pressure 29.99 in    
Wind  
Wind Speed 2 mph (North)    
Max Wind Speed 8 mph    
Max Gust Speed 18 mph    
Visibility 10 miles    
Events      
Averages and records for this station are not official NWS values.
T = Trace of Precipitation, MM = Missing Value Source: NWS Daily Summary

Daily Weather History Graph

Daily Weather History Graph

Search for Another Location

Airport or City:

Astronomy

Aug. 10, 2019 Rise Set
Actual Time 6:25 AM EDT 8:09 PM EDT
Civil Twilight 5:57 AM EDT 8:37 PM EDT
Nautical Twilight 5:23 AM EDT 9:10 PM EDT
Astronomical Twilight 4:47 AM EDT 9:46 PM EDT
Moon 4:46 PM EDT (8/10) 2:02 AM EDT (8/10)
Length of Visible Light 14h 39m
Length of Day
13h 44m
Waxing Gibbous, 79% of the Moon is Illuminated
Aug 10
Waxing Gibbous
Aug 15
Full
Aug 23
Last Quarter
Aug 30
New
Sep 5
First Quarter

Hourly Weather History & Observations

Time (EDT) Temp. Heat Index Dew Point Humidity Pressure Visibility Wind Dir Wind Speed Gust Speed Precip Events Conditions
12:15 AM 72.5 °F - 71.8 °F 98% 29.95 in 10.0 mi Calm Calm - N/A   Scattered Clouds
12:35 AM 70.2 °F - 70.2 °F 100% 29.95 in 10.0 mi WSW 3.5 mph - N/A   Clear
12:55 AM 72.5 °F - 70.5 °F 93% 29.96 in 10.0 mi Calm Calm - N/A   Clear
1:15 AM 73.6 °F - 70.7 °F 91% 29.96 in 10.0 mi Calm Calm - N/A   Scattered Clouds
1:35 AM 74.5 °F - 70.3 °F 87% 29.96 in 10.0 mi Calm Calm - N/A   Scattered Clouds
1:55 AM 73.9 °F - 69.8 °F 87% 29.96 in 10.0 mi Calm Calm - N/A   Clear
2:15 AM 72.0 °F - 69.8 °F 93% 29.96 in 10.0 mi Calm Calm - N/A   Clear
2:35 AM 72.1 °F - 69.8 °F 92% 29.96 in 10.0 mi NNW 4.6 mph - N/A   Scattered Clouds
2:55 AM 71.6 °F - 69.4 °F 93% 29.95 in 10.0 mi NNW 3.5 mph - N/A   Scattered Clouds
3:15 AM 71.6 °F - 69.4 °F 93% 29.96 in 10.0 mi North 8.1 mph - N/A   Scattered Clouds
3:35 AM 71.8 °F - 69.3 °F 92% 29.96 in 10.0 mi North 5.8 mph - N/A   Scattered Clouds
3:55 AM 72.3 °F - 68.7 °F 88% 29.96 in 10.0 mi North 6.9 mph - N/A   Mostly Cloudy
4:15 AM 72.3 °F - 68.0 °F 86% 29.97 in 10.0 mi NNE 4.6 mph - N/A   Mostly Cloudy
4:35 AM 70.9 °F - 67.8 °F 90% 29.96 in 10.0 mi Calm Calm - N/A   Scattered Clouds
4:55 AM 69.6 °F - 68.0 °F 95% 29.97 in 10.0 mi Calm Calm - N/A   Scattered Clouds
5:15 AM 70.0 °F - 66.6 °F 89% 29.97 in 10.0 mi Calm Calm - N/A   Scattered Clouds
5:35 AM 69.1 °F - 65.8 °F 89% 29.98 in 10.0 mi Calm Calm - N/A   Clear
5:55 AM 68.0 °F - 65.3 °F 91% 29.99 in 10.0 mi Calm Calm - N/A   Clear
6:15 AM 67.3 °F - 64.8 °F 92% 29.99 in 10.0 mi Calm Calm - N/A   Clear
6:35 AM 66.7 °F - 64.6 °F 93% 29.99 in 10.0 mi Calm Calm - N/A   Clear
6:55 AM 66.0 °F - 65.1 °F 97% 30.00 in 10.0 mi Calm Calm - N/A   Clear
7:35 AM 67.1 °F - 64.9 °F 93% 30.01 in 10.0 mi Calm Calm - N/A   Clear
7:55 AM 70.0 °F - 64.2 °F 82% 30.01 in 10.0 mi Calm Calm - N/A   Clear
8:15 AM 72.1 °F - 62.4 °F 71% 30.02 in 10.0 mi Calm Calm - N/A   Clear
8:35 AM 73.4 °F - 61.9 °F 67% 30.03 in 10.0 mi Calm Calm - N/A   Clear
8:55 AM 74.7 °F - 61.2 °F 63% 30.03 in 10.0 mi Calm Calm - N/A   Clear
9:15 AM 75.0 °F - 60.6 °F 61% 30.02 in 10.0 mi NNE 3.5 mph - N/A   Clear
9:35 AM 75.9 °F - 60.6 °F 59% 30.03 in 10.0 mi Calm Calm - N/A   Clear
9:55 AM 76.3 °F - 60.6 °F 58% 30.03 in 10.0 mi NNE 4.6 mph - N/A   Clear
10:15 AM 78.1 °F - 60.6 °F 55% 30.04 in 10.0 mi NNE 4.6 mph - N/A   Clear
10:35 AM 78.6 °F - 60.6 °F 54% 30.04 in 10.0 mi North 3.5 mph - N/A   Clear
10:55 AM 78.8 °F - 60.8 °F 54% 30.04 in 10.0 mi Calm Calm - N/A   Clear
11:15 AM 79.5 °F - 61.0 °F 53% 30.04 in 10.0 mi NE 3.5 mph - N/A   Clear
11:35 AM 80.1 °F 81.1 °F 60.8 °F 52% 30.04 in 10.0 mi North 4.6 mph - N/A   Clear
11:55 AM 81.3 °F 82.2 °F 61.7 °F 51% 30.03 in 10.0 mi NE 3.5 mph - N/A   Clear
12:15 PM 81.9 °F 82.6 °F 61.5 °F 50% 30.03 in 10.0 mi ENE 4.6 mph - N/A   Clear
12:35 PM 82.0 °F 83.0 °F 62.1 °F 51% 30.02 in 10.0 mi Calm Calm - N/A   Clear
12:55 PM 82.2 °F 83.0 °F 61.7 °F 50% 30.01 in 10.0 mi Calm Calm - N/A   Clear
1:15 PM 82.0 °F 82.8 °F 61.5 °F 50% 30.01 in 10.0 mi NNE 4.6 mph - N/A   Clear
1:35 PM 83.1 °F 83.9 °F 62.1 °F 49% 30.00 in 10.0 mi North 5.8 mph - N/A   Clear
1:55 PM 83.8 °F 84.7 °F 62.6 °F 49% 30.00 in 10.0 mi Calm Calm - N/A   Clear
2:35 PM 84.7 °F 85.9 °F 63.7 °F 49% 29.99 in 10.0 mi NNW 3.5 mph - N/A   Scattered Clouds
2:55 PM 84.7 °F 85.9 °F 63.5 °F 49% 29.98 in 10.0 mi Calm Calm - N/A   Mostly Cloudy
3:15 PM 84.7 °F 85.9 °F 63.9 °F 49% 29.97 in 10.0 mi Calm Calm - N/A   Scattered Clouds
3:35 PM 85.6 °F 87.1 °F 64.8 °F 49% 29.97 in 10.0 mi WNW 3.5 mph - N/A   Clear
3:55 PM 85.1 °F 87.1 °F 65.5 °F 52% 29.96 in 10.0 mi SSW 3.5 mph - N/A   Clear
4:15 PM 85.3 °F 86.8 °F 64.9 °F 50% 29.95 in 10.0 mi Calm Calm - N/A   Clear
4:35 PM 86.2 °F 88.4 °F 66.2 °F 51% 29.95 in 10.0 mi Calm Calm - N/A   Clear
4:55 PM 86.0 °F 88.8 °F 66.9 °F 53% 29.93 in 10.0 mi South 4.6 mph - N/A   Clear
5:15 PM 85.5 °F 87.4 °F 65.5 °F 51% 29.93 in 10.0 mi South 4.6 mph - N/A   Clear
5:35 PM 86.2 °F 88.4 °F 66.2 °F 51% 29.93 in 10.0 mi Calm Calm - N/A   Clear
5:55 PM 85.8 °F 88.2 °F 66.4 °F 52% 29.93 in 10.0 mi SW 3.5 mph - N/A   Clear
6:15 PM 85.1 °F 87.4 °F 66.4 °F 53% 29.94 in 10.0 mi Calm Calm - N/A   Clear
6:35 PM 84.6 °F 86.8 °F 66.4 °F 54% 29.94 in 10.0 mi Calm Calm - N/A   Mostly Cloudy
7:15 PM 82.0 °F 85.3 °F 68.9 °F 64% 29.96 in 10.0 mi Calm Calm - N/A   Overcast
7:35 PM 81.5 °F 84.6 °F 68.9 °F 65% 29.96 in 10.0 mi Calm Calm - N/A   Scattered Clouds
7:55 PM 79.7 °F - 68.9 °F 69% 29.96 in 10.0 mi Calm Calm - N/A   Clear
8:15 PM 78.3 °F - 69.3 °F 74% 29.97 in 10.0 mi Calm Calm - N/A   Clear
8:35 PM 76.6 °F - 69.6 °F 79% 29.97 in 10.0 mi Calm Calm - N/A   Clear
8:55 PM 76.1 °F - 70.2 °F 82% 29.98 in 10.0 mi Calm Calm - N/A   Mostly Cloudy
9:15 PM 76.1 °F - 70.0 °F 81% 29.98 in 10.0 mi Calm Calm - N/A   Overcast
9:35 PM 76.3 °F - 69.3 °F 79% 29.99 in 10.0 mi Calm Calm - N/A   Overcast
9:55 PM 76.3 °F - 69.1 °F 78% 30.00 in 10.0 mi Calm Calm - N/A   Mostly Cloudy
10:15 PM 73.0 °F - 71.2 °F 94% 30.01 in 3.0 mi ESE 3.5 mph 18.4 mph 0.16 in   Overcast
10:35 PM 70.9 °F - 70.9 °F 100% 30.01 in 10.0 mi Calm Calm - 0.21 in   Scattered Clouds
10:55 PM 70.7 °F - 70.7 °F 100% 30.02 in 10.0 mi Calm Calm - 0.21 in   Scattered Clouds
11:15 PM 70.2 °F - 70.2 °F 100% 30.02 in 10.0 mi Calm Calm - N/A   Mostly Cloudy
11:35 PM 70.7 °F - 70.7 °F 100% 30.01 in 10.0 mi Calm Calm - N/A   Overcast
11:55 PM 70.0 °F - 70.0 °F 100% 30.02 in 10.0 mi North 4.6 mph - N/A   Mostly Cloudy